STARLINK-38363, 100510

Orbit data source: Space-Track

STARLINK-38363, 100510 is a payload satellite owned by SpaceX/Seattle (US) in LEO that was launched on Wed, 26 Aug 2026 UTC launched from the Air Force Western Test Range (AFWTR). Payload-class satellites include a variety of spacecraft equipped with specific instruments for various scientific and technological missions. These include communications satellites like Starlink; space stations such as the ISS; scientific satellites like the Hubble; Earth observation satellites from companies like Planet Labs, Umbra, and HawkEye 360; GPS; miniature CubeSats for education and research; and military/defense satellites.

Loading next visibility...
Identifier
100510, 2026-197J
Orbit
LEO
Country
Flag of USUS
Related business
Manufacturer
SpaceX/Seattle
Mission
Operational spacecraft
Bus & Motor
STARLINK V2MO, Unknown motor
Mass
575 kg wet, ~530 kg dry
Launch date (UTC)
2026-08-26 (2 weeks ago)
Launch vehicle
Unknown
Launch site
Air Force Western Test Range (AFWTR)
Object type
Payload
Rocket body
Debris
Shape & HBR
BOX + PAN, 17.7 m
Radar Cross Section
RCS unknown

Expand to show TLE details & history
Last TLE update: 13 hours ago

TLE from 13 hours ago
0 STARLINK-38363
1 A0510U 26197J   26251.23615483  .00281922  00000-0  13220-2 0  9993
2 A0510  69.9988 156.5894 0003654 268.3696  91.7087 15.82278843  2050
Epoch: 2026-09-08T05:40Z
TLE epoch observation values (Epoch: 2026-09-08T05:40:03.777Z)
Latitude
-0.00006°
Longitude
84.26817°
Altitude
326.585 km
Speed
7.713 km/s
True Right ascension
10h 26m 21s
True Declination
0° 00' 00"
Sunlit
Object was in daylight at epoch
Visualization orbit readout
Latitude
Unknown
Longitude
Unknown
Altitude
Unknown
Speed
Unknown
Apparent Right ascension
Unknown
Apparent Declination
Unknown
Sunlit
N/A
Visualization observer readout
Local Sidereal Time
10:30:23
Azimuth
Unknown
Elevation
Unknown
Doppler factor
Unknown
Orbital elements
Apogee altitude
324.318 km
Perigee altitude
319.422 km
Semi-major axis
6,700.007 km
Eccentricity
0.00037
Inclination
69.9988°
RAAN
156.5894°
Arg. of periapsis
268.3696°
True anomaly
91.75055°
Mean anomaly
91.7087°
Eccentric anomaly
91.72963°
Mean motion
3.95759 °/min
Orbital period
90.96 mins
BSTAR
0.001322
Loading maneuver chart data...
Computing Atmospheric mass density...
Loading historical data...
Loading historical data...
Loading historical data...
Loading historical data...
Loading historical data...
Loading historical data...
Loading historical data...

Documentation

Showing up to 5 results
|